Location: Bh?mavarapp?du
(16.7041°N, 80.6518°E)
Time: 06:29:31
(UTC+00:00)

Cosmos 2219 Rocket - Pass Details

Date: 21 April 2021
Orbit: 826 x 848 km, 71.0° (Epoch: 05 May)

Event Time Altitude Azimuth Distance (km) Brightness Sun altitude
Rises 15:04:40 0° 340° (NNW) 3,401 5.9 -30.4°
Reaches altitude 10° 15:07:07 10° 339° (NNW) 2,463 5.1 -30.9°
Enters shadow 15:11:37 57° 322° (NW) 990 2.7 -31.9°
